Wind_Speed
19 19 19 20 21 21 20 20 20 20 22 24 25 27 29 30 30 29 27 26 25 24 24 24 24 25 25 25 25 26 26 26 27 28 29 30 30 30 31 32 34 35 36 37 38 39 40 42 43 43 44 44 45 45 46 46 46 46 47 48 48 49 49 49 50 50 50 50 51 51 51 51 52 52 53 53 51 50 48 47 47 47 47 47 46
18 19 21 23 24 24 23 23 23 23 24 24 24 24 26 29 29 30 29 29 28 28 28 28 29 29 29 29 29 29 29 30 31 31 32 32 32 31 32 33 34 35 37 38 38 39 40 41 42 43 43 44 45 45 46 46 46 46 47 48 48 49 49 50 50 50 50 50 51 52 52 52 53 54 54 53 51 49 48 47 47 47 47 46 44
21 21 23 25 25 24 24 23 24 26 28 29 28 28 30 32 33 34 33 32 32 32 32 32 32 32 32 32 32 32 32 32 32 32 32 33 32 32 31 32 34 35 36 37 38 38 39 39 40 41 42 43 44 45 46 46 47 47 47 48 48 49 49 49 50 50 50 51 51 52 52 53 53 53 53 52 50 49 48 47 46 46 45 44 43
28 28 28 27 26 25 24 24 26 28 30 31 31 31 33 35 37 38 37 36 36 36 36 36 35 35 35 34 34 35 36 36 36 36 37 36 35 33 32 32 33 34 36 37 38 38 38 39 40 41 42 43 44 45 46 47 48 48 48 48 48 49 49 49 50 50 51 52 52 52 53 53 54 54 53 51 50 49 48 46 46 45 45 45 45
34 34 33 31 30 30 29 28 28 29 32 33 32 32 34 36 38 38 37 37 37 37 38 38 37 37 37 37 39 40 42 42 42 41 40 39 37 35 34 34 34 35 36 38 39 40 40 41 42 44 45 46 47 48 48 49 49 49 50 50 50 50 50 51 51 52 53 53 54 54 54 54 55 55 53 51 50 48 47 46 46 47 48 47 47
36 36 36 35 32 32 33 32 30 29 30 32 33 33 34 36 38 38 38 39 39 40 40 41 41 41 43 44 46 47 47 46 45 43 42 41 39 38 37 35 35 36 38 39 40 42 42 44 46 47 48 49 50 50 51 51 51 51 52 53 53 53 53 54 54 55 55 56 56 55 56 56 56 54 53 51 50 49 48 48 49 49 48 47 47
38 38 39 35 30 30 33 34 34 32 31 31 31 33 34 34 35 36 37 38 39 40 42 43 44 45 46 47 48 48 47 47 46 45 44 43 41 41 40 39 38 39 40 42 43 44 46 48 50 52 52 53 53 54 54 54 54 55 56 56 56 56 56 57 57 57 57 57 57 57 57 56 55 53 53 53 52 51 51 50 49 48 47 46 46
41 42 42 37 32 31 32 33 34 35 34 33 33 35 36 35 35 36 36 38 40 41 42 42 43 43 44 45 46 46 47 47 47 47 46 45 44 43 43 42 42 42 43 45 47 48 50 52 54 56 56 57 57 57 58 58 58 59 59 59 59 59 59 58 58 58 58 58 58 58 58 57 55 54 54 55 55 54 52 50 48 47 46 45 45
41 42 42 39 38 40 40 40 40 39 37 35 35 35 37 38 39 41 42 42 43 43 43 42 42 43 43 44 44 44 44 45 46 47 47 46 46 46 46 46 47 47 48 50 51 53 55 57 58 60 60 60 59 59 60 61 62 61 61 61 61 61 60 60 59 59 59 59 59 59 59 58 57 56 57 57 56 55 54 52 50 48 47 46 46
44 45 45 43 43 46 48 49 49 46 43 40 38 38 38 40 41 43 44 44 43 43 43 42 43 43 43 43 43 43 44 46 47 48 48 48 49 50 50 51 52 53 55 56 57 58 60 61 62 63 63 62 60 60 60 62 62 62 62 61 61 61 60 59 59 59 59 59 59 59 59 59 59 59 60 59 58 58 57 55 53 51 50 49 49
51 51 51 49 48 49 51 52 51 49 47 46 45 45 44 43 43 43 43 44 45 46 46 46 46 46 45 46 47 49 51 51 51 51 52 52 53 54 55 56 57 58 59 60 62 63 64 64 64 64 64 63 61 60 60 61 61 62 61 61 60 60 60 59 59 59 60 60 60 60 60 61 61 61 61 61 61 61 60 57 55 54 53 52 51
56 56 56 54 53 52 53 54 54 53 51 50 51 51 50 47 46 45 46 47 48 50 51 52 52 51 52 53 54 56 58 58 57 56 56 56 57 58 60 61 62 63 64 65 66 66 67 66 66 65 64 63 61 60 60 60 60 60 60 60 60 60 59 59 59 60 60 60 60 60 60 62 62 62 63 63 63 63 61 60 58 57 55 55 54
57 58 59 58 56 55 54 54 56 57 56 55 54 55 54 52 50 50 51 52 53 54 55 56 57 57 58 58 59 61 63 63 61 61 60 60 62 63 64 64 65 66 67 69 69 69 69 68 67 66 65 63 61 60 59 59 59 58 59 59 60 60 59 59 60 60 60 60 60 61 62 64 64 63 64 63 63 63 62 61 60 59 57 56 56
60 60 61 62 62 60 58 56 58 60 60 58 58 59 59 59 58 57 57 58 59 59 59 60 61 62 62 63 63 64 65 66 65 64 63 64 66 67 67 68 69 70 71 71 71 71 71 69 68 67 65 63 61 60 59 59 59 59 59 60 60 60 60 60 60 61 61 62 62 63 64 63 62 61 62 62 61 62 62 61 59 58 58 58 57
62 63 62 63 64 65 64 62 62 62 62 61 61 63 65 65 65 64 63 62 62 63 63 63 64 65 66 67 68 68 68 68 69 68 69 70 71 71 71 72 73 73 73 73 73 73 72 70 69 67 66 64 62 61 61 60 60 60 60 60 60 60 60 60 59 60 61 61 62 62 62 61 60 59 60 61 61 62 62 61 61 60 59 59 59
64 65 65 64 63 65 67 67 67 67 66 65 65 67 68 68 69 68 67 65 65 65 66 67 67 67 67 68 70 71 71 72 72 73 75 76 76 76 76 76 76 76 76 76 76 75 73 71 69 68 67 65 64 63 62 61 61 60 60 60 60 60 60 60 59 60 60 59 59 60 61 62 62 61 61 61 62 63 64 63 62 61 60 59 59
67 69 69 68 67 66 66 68 69 70 69 67 66 68 70 70 70 71 71 72 71 70 70 70 70 69 68 67 68 69 71 73 75 77 79 80 81 81 80 80 79 79 79 79 78 76 74 72 70 69 67 66 65 64 63 62 61 60 60 60 60 60 60 60 60 60 60 60 60 61 61 62 63 63 63 63 63 64 66 65 64 63 62 61 60
69 71 71 72 72 72 69 69 70 72 73 71 70 70 72 72 71 73 75 77 77 77 77 76 75 74 74 74 73 73 74 75 77 79 81 83 84 84 84 83 82 82 81 80 78 76 73 71 70 68 66 65 64 64 64 63 62 61 61 61 61 60 60 61 61 61 62 62 62 62 62 63 64 64 64 64 64 65 66 66 66 66 65 63 63
71 72 73 73 74 75 75 74 74 75 75 76 75 74 75 75 74 74 76 78 80 81 82 82 82 82 83 84 85 85 84 84 84 84 85 87 87 88 88 87 86 84 83 80 77 73 71 69 68 67 66 66 65 64 64 64 63 63 63 62 62 62 63 63 63 63 65 65 65 64 65 65 66 66 66 66 66 67 66 66 68 68 67 66 65
76 77 77 76 76 76 76 77 77 78 79 79 80 80 80 80 79 78 80 82 84 85 86 87 87 87 89 90 91 92 92 92 92 92 92 93 93 93 92 91 89 87 84 79 75 71 70 69 69 69 68 68 67 67 67 66 66 66 65 65 65 66 66 66 66 66 67 67 67 67 67 68 70 70 70 70 70 70 69 68 68 69 69 69 69
79 81 81 81 80 79 78 78 79 80 81 82 83 83 84 85 85 84 84 86 89 90 91 92 91 91 92 93 94 95 96 97 98 98 98 98 98 97 96 94 91 88 83 79 75 72 71 71 72 72 71 71 71 71 71 71 71 71 70 71 71 71 70 70 70 70 70 70 70 70 70 71 72 73 74 74 74 74 73 72 72 71 71 71 72
80 81 82 83 82 82 81 81 81 82 83 84 84 85 86 87 88 88 88 89 91 93 94 94 95 95 95 96 97 98 99 100 100 100 100 100 99 97 95 92 89 86 81 78 76 75 74 74 74 75 75 75 74 75 75 76 76 75 75 75 76 77 76 76 75 74 74 74 74 73 73 74 74 75 75 75 76 76 76 76 77 76 76 76 75
82 82 82 83 83 83 83 83 83 83 84 84 84 85 86 88 89 91 91 92 93 94 95 96 96 97 97 98 98 98 98 99 99 99 99 98 97 94 91 88 86 84 81 79 78 78 77 77 77 78 79 79 79 79 79 79 79 79 79 79 80 80 80 80 80 80 80 79 78 78 77 77 77 77 78 78 77 78 78 78 79 80 80 80 79
83 84 84 84 85 85 85 85 85 85 85 86 86 86 87 88 89 90 91 92 93 94 95 95 96 97 98 98 98 99 99 99 99 99 99 97 96 94 91 88 87 85 84 82 81 81 80 80 80 81 82 83 83 84 84 84 83 83 84 84 84 83 83 83 84 84 84 84 83 83 82 82 81 81 81 81 81 80 80 80 80 81 81 81 81
85 85 85 85 86 86 86 86 86 86 85 86 86 86 86 86 87 88 90 91 92 93 94 95 96 96 97 97 97 97 97 96 96 96 95 94 92 91 90 90 89 88 86 85 84 84 83 83 84 84 85 86 87 88 88 88 88 88 88 88 87 86 86 86 87 87 87 87 87 87 87 86 85 85 84 84 83 82 81 81 81 81 81 81 82
85 84 84 84 84 84 84 85 85 85 85 85 85 85 85 86 87 88 89 90 91 92 93 94 95 95 95 94 94 94 93 93 93 93 92 92 91 91 91 91 91 91 90 89 89 88 88 88 88 88 89 90 91 92 92 91 91 91 91 91 90 89 89 89 90 90 90 90 90 90 90 89 88 87 86 85 84 83 82 81 81 81 81 81 81
83 83 84 84 84 85 85 85 86 86 86 87 87 87 88 88 89 89 90 90 91 92 92 93 93 93 93 92 92 92 92 93 93 94 95 95 95 95 95 95 95 95 94 94 94 93 93 93 93 93 93 94 94 95 95 95 94 94 94 94 93 92 92 92 92 92 92 92 92 92 91 90 89 88 87 86 85 84 83 82 80 79 79 79 80
81 82 83 84 85 85 86 86 86 87 87 88 88 89 89 89 90 90 90 90 91 91 91 91 91 91 91 92 92 93 94 94 96 97 98 99 99 99 99 99 99 99 99 99 98 98 97 97 98 98 98 98 97 98 98 98 98 97 97 96 95 94 94 93 92 92 92 92 91 91 90 89 89 89 88 88 87 85 83 80 77 76 76 77 78
81 81 82 83 84 84 85 85 86 86 87 88 88 89 89 89 89 89 90 90 90 91 91 92 92 93 93 94 95 95 96 98 99 100 101 102 102 102 103 103 104 104 104 104 102 101 101 101 101 101 101 100 99 99 99 99 99 98 97 96 95 93 92 90 89 89 89 90 90 89 88 88 89 89 89 88 87 85 81 77 74 73 73 74 76
81 82 82 83 83 84 84 85 85 86 86 87 88 89 89 89 90 90 91 91 91 92 93 94 95 96 97 98 98 99 99 100 102 103 104 105 105 106 106 107 107 107 107 107 106 105 104 104 103 103 102 101 100 99 98 97 97 96 95 94 92 90 89 87 87 87 87 88 88 88 87 87 88 88 87 87 85 82 77 74 72 72 72 72 73
82 83 84 84 85 86 86 87 87 88 88 89 90 91 91 92 92 92 93 94 94 95 96 97 98 99 100 101 101 102 102 103 104 105 106 107 108 108 109 109 109 109 109 109 109 108 107 107 106 106 104 103 100 98 97 96 95 94 93 92 90 88 86 85 84 84 86 88 88 87 86 86 86 85 85 84 81 77 74 72 71 71 71 71 71
86 87 88 88 89 89 90 90 90 91 91 91 92 93 94 95 95 95 95 96 97 98 99 99 100 101 102 103 103 104 105 106 106 107 108 109 109 110 111 111 111 111 111 111 110 109 108 107 106 106 104 102 99 96 94 93 92 91 90 89 87 85 84 82 81 81 83 86 87 86 84 84 84 83 82 79 76 72 69 68 68 68 68 69 69
92 92 92 92 92 92 93 93 93 93 94 94 95 95 96 97 98 99 99 99 99 100 101 102 103 104 104 105 106 107 107 108 109 109 110 110 111 112 112 112 112 111 111 110 109 107 105 103 102 100 98 95 92 89 87 85 84 83 83 82 81 80 79 78 77 77 79 82 83 82 81 83 83 81 79 75 70 67 64 62 63 65 65 66 65
95 95 95 96 96 96 96 96 96 97 97 97 98 98 98 99 100 101 102 103 102 103 103 103 104 105 107 107 108 108 109 109 110 110 111 111 112 112 112 111 110 109 107 106 103 101 98 95 92 90 88 85 81 78 76 76 75 75 75 75 74 74 73 73 73 74 75 77 78 78 79 81 81 78 74 70 66 62 59 59 62 64 63 61 60
97 98 98 99 99 99 99 99 99 99 99 99 99 100 100 101 102 103 104 104 105 105 105 105 105 106 107 108 108 109 109 109 109 109 109 109 109 109 108 106 104 102 99 97 94 92 89 86 83 80 78 76 73 70 69 69 69 69 69 69 69 69 69 69 70 71 71 72 73 75 78 79 78 74 70 66 62 57 54 56 61 62 60 57 55
98 99 98 98 98 98 98 98 98 99 99 99 99 99 100 100 101 101 102 102 103 104 104 104 103 103 103 103 104 104 105 105 104 104 103 102 102 101 99 98 96 93 91 88 86 84 81 78 75 73 71 70 68 66 65 65 65 65 65 64 64 64 65 65 66 67 68 69 70 72 75 75 73 70 66 62 58 52 50 54 58 58 55 52 50
95 95 95 95 95 95 96 96 96 96 96 96 96 96 96 96 96 96 96 96 96 97 97 98 98 97 96 96 96 96 96 96 96 95 94 94 93 92 91 89 88 86 84 81 78 76 74 72 70 69 67 66 65 63 62 62 62 62 62 62 62 61 62 63 64 65 66 67 68 69 70 70 67 65 62 59 55 50 49 53 55 52 49 47 45
92 93 93 93 93 93 93 93 93 92 92 91 91 90 90 89 89 89 89 89 89 89 89 89 89 89 89 88 88 87 87 86 86 86 86 85 85 84 83 82 80 79 77 75 72 70 69 67 65 64 63 63 62 61 60 59 59 60 60 60 60 59 60 62 63 64 64 65 65 66 65 64 62 60 58 56 52 48 49 52 51 47 44 43 41
92 92 92 91 91 91 91 90 89 89 88 87 86 86 85 85 84 84 83 83 83 82 82 83 83 83 83 83 82 81 81 80 79 79 78 78 78 77 76 75 74 73 71 69 67 65 64 62 60 59 59 59 59 59 58 57 57 58 59 58 58 58 58 59 61 62 62 62 62 62 61 59 58 56 55 54 51 48 48 50 48 44 41 39 38
89 89 89 89 89 89 88 87 86 86 85 84 83 82 82 81 80 80 79 79 79 79 78 78 78 78 78 78 77 77 76 75 74 73 73 72 72 71 70 69 68 66 65 63 62 61 59 58 57 56 56 55 56 56 56 56 56 57 57 57 56 55 55 56 58 59 59 59 59 58 57 56 55 54 53 52 50 47 47 48 46 42 40 38 37
84 84 84 84 84 84 83 82 81 80 80 79 78 77 77 77 76 76 75 75 75 75 75 74 74 74 73 73 73 72 72 71 70 69 68 68 67 66 65 64 62 61 60 59 58 57 55 54 53 53 53 53 53 54 54 54 54 55 55 54 53 52 52 52 53 54 55 56 55 55 54 54 53 52 51 50 49 47 47 47 44 41 39 37 36
77 77 77 77 77 76 76 75 75 74 73 73 72 72 72 72 72 71 71 71 71 71 71 70 70 69 69 69 68 68 67 66 66 65 64 63 62 61 60 59 57 56 56 56 55 54 52 51 50 49 50 51 51 52 52 52 52 52 52 51 49 48 49 49 49 50 51 52 52 52 51 51 50 49 48 47 48 47 45 44 41 39 37 37 36
70 70 71 71 70 70 70 69 69 68 68 68 68 68 69 69 68 68 68 68 68 67 67 66 66 65 65 64 63 63 62 62 61 60 59 59 58 57 55 54 53 53 54 54 53 51 50 50 49 48 47 48 49 49 49 49 49 48 47 46 44 45 46 47 47 48 49 49 49 48 48 48 47 46 45 45 46 45 43 40 37 36 36 36 35
66 66 66 66 65 65 65 64 64 64 64 64 65 65 65 65 65 65 64 64 63 62 62 61 61 60 60 59 59 58 58 57 57 56 56 55 54 53 51 50 50 51 52 52 51 49 48 47 47 46 46 45 46 46 46 46 45 45 43 42 42 44 46 47 46 46 45 45 45 45 45 45 45 44 43 43 44 43 40 37 35 35 35 35 35
62 62 61 61 60 60 60 60 60 60 60 61 61 62 62 61 61 60 60 59 59 58 57 57 57 56 56 56 55 55 54 54 53 53 53 53 52 50 49 48 48 48 49 49 48 47 46 45 44 44 44 44 43 44 43 43 42 42 42 42 42 43 44 44 44 43 43 42 42 43 43 43 43 42 41 41 41 40 38 36 35 34 34 34 35
58 57 57 57 57 56 57 57 57 57 57 57 57 58 58 57 57 57 56 56 55 55 54 54 54 54 53 53 52 52 51 51 50 50 50 50 49 47 46 46 45 46 47 47 45 44 43 43 42 42 42 42 41 41 41 40 40 40 41 41 41 41 41 42 41 41 41 40 40 40 40 40 40 40 39 38 38 37 36 35 35 34 34 35 36
54 54 54 54 54 54 54 54 54 54 54 54 54 54 54 54 54 54 54 53 53 53 52 52 52 51 51 50 50 49 48 48 48 47 47 47 45 44 44 44 43 43 43 44 43 41 41 41 40 39 39 38 38 38 38 38 39 39 40 40 40 39 39 38 38 38 38 38 38 38 38 38 38 37 37 36 36 36 35 34 34 34 35 36 38
52 52 51 51 51 51 51 51 51 51 51 51 51 52 52 52 52 52 51 51 51 50 50 49 49 49 48 48 47 46 45 45 45 44 44 44 42 41 41 41 40 39 40 41 41 39 38 37 37 36 35 35 34 35 35 35 36 37 37 37 37 36 36 35 35 36 36 36 36 36 36 36 36 36 35 35 35 35 34 34 35 35 36 37 39
49 49 49 49 49 49 49 49 49 49 49 49 49 49 49 49 49 49 49 48 48 47 47 46 46 45 45 45 44 43 43 43 43 42 41 40 39 38 38 38 37 37 37 38 38 38 36 35 34 33 33 32 31 32 32 33 34 34 34 34 34 33 33 33 34 35 35 34 34 35 35 35 35 35 35 35 35 35 35 35 36 37 37 38 40
47 47 46 47 47 47 47 47 46 46 46 46 46 46 46 46 46 46 46 45 45 44 44 43 43 42 42 42 42 41 41 41 40 39 38 37 36 35 35 35 36 35 35 35 36 36 35 33 32 31 31 30 29 30 30 31 32 33 33 33 33 31 31 32 33 33 33 33 33 33 33 33 34 34 34 34 34 34 35 35 36 37 38 39 40
44 44 44 45 45 45 44 44 44 44 44 44 43 43 44 44 43 43 43 43 42 42 41 41 40 40 40 40 39 39 39 39 38 37 36 35 34 32 32 33 34 34 34 33 33 33 33 32 31 30 29 28 28 28 29 29 30 31 32 32 32 31 30 30 31 31 32 32 31 31 32 32 32 32 33 33 33 34 34 35 36 37 37 38 40
Wind_Direction
255 250 249 254 261 266 268 268 267 264 259 255 251 249 247 244 243 244 247 249 251 252 252 251 250 251 253 254 257 260 263 265 267 270 275 282 286 287 286 284 282 281 280 279 278 277 276 276 275 275 276 276 276 276 276 276 277 277 278 278 279 279 280 280 280 281 281 282 283 285 286 287 288 289 289 288 288 286 285 285 285 285 285 284 283
258 254 250 251 256 261 264 265 265 264 263 259 255 250 248 247 246 248 251 253 255 256 257 256 255 254 255 257 260 263 266 269 272 275 279 283 286 287 287 285 282 281 281 280 279 279 278 279 279 279 278 278 278 277 277 277 277 277 277 278 279 279 279 279 280 280 281 283 284 286 288 289 290 290 290 289 288 286 285 284 284 284 283 282 281
255 253 251 249 251 255 256 258 259 258 259 259 257 255 255 255 255 255 257 259 260 263 264 264 263 262 262 263 266 269 272 274 275 278 282 285 288 289 289 288 285 284 283 282 281 281 281 283 283 283 282 281 280 280 280 279 279 279 278 279 279 279 280 280 281 282 282 283 284 286 287 289 291 291 291 290 288 287 285 284 284 283 282 281 280
251 249 249 248 248 250 252 255 256 255 255 255 255 256 256 257 259 261 263 264 265 267 268 268 268 269 269 270 271 273 274 275 276 279 282 286 288 289 290 290 288 287 288 286 284 284 285 287 288 288 287 286 284 284 283 282 282 282 281 281 281 281 282 282 282 282 282 283 283 285 287 290 292 293 292 291 289 287 286 285 284 283 282 281 280
253 252 251 250 251 252 255 261 264 262 259 255 253 253 254 257 260 263 265 265 267 268 269 269 269 270 271 273 275 277 277 278 278 279 281 284 286 287 289 291 289 288 289 289 288 287 288 290 292 293 292 290 288 287 286 285 284 283 283 282 282 282 282 282 282 283 283 283 284 286 288 291 293 293 292 290 289 287 286 285 285 285 284 282 281
254 256 254 253 254 255 256 258 263 264 261 257 254 254 255 258 261 263 264 265 266 267 268 268 268 270 272 275 277 279 279 279 279 279 281 284 286 288 291 292 291 289 289 290 290 289 289 291 294 296 295 294 291 289 287 285 284 283 283 283 283 283 283 283 284 285 285 286 287 288 290 292 292 292 291 290 288 287 285 285 286 286 284 283 282
255 258 259 258 257 257 258 259 259 259 257 255 256 258 259 260 261 261 263 264 265 265 266 267 269 271 273 274 275 277 277 278 278 279 282 284 288 291 293 293 293 292 291 292 292 291 290 291 294 296 296 295 293 290 288 286 284 283 283 283 283 283 284 285 285 286 287 287 288 289 290 291 291 290 290 289 288 288 287 286 286 285 283 283 283
256 258 259 258 252 250 255 260 261 260 257 257 258 259 259 260 262 264 266 268 267 267 268 268 270 270 271 271 272 273 274 275 276 278 282 286 290 293 294 294 293 292 291 291 291 289 289 290 292 294 294 294 293 290 288 286 285 284 284 284 284 285 285 286 287 288 288 289 290 290 291 291 291 290 290 289 289 289 289 288 286 285 283 283 283
252 254 255 253 248 247 250 255 260 260 258 258 261 261 260 262 264 267 270 271 271 270 269 269 269 270 269 270 271 272 273 275 277 280 284 288 291 293 294 295 294 293 292 292 291 290 290 290 291 292 293 293 292 290 288 287 286 286 286 286 286 287 288 289 289 290 291 291 292 292 292 292 291 291 290 290 290 291 291 290 289 287 286 285 284
249 251 251 247 245 248 251 255 259 261 259 257 258 259 260 262 264 266 268 269 269 269 269 269 270 270 270 270 272 274 275 277 280 284 287 289 291 293 295 295 295 294 294 294 293 293 292 292 292 292 293 293 292 291 289 288 288 288 288 288 288 289 289 289 290 290 291 291 291 290 290 290 289 289 290 290 290 291 291 291 290 289 288 287 286
249 250 250 247 246 246 249 252 256 259 259 258 257 258 259 259 261 263 264 265 267 269 270 271 272 272 272 273 274 276 276 278 281 284 287 289 292 294 296 296 296 295 294 294 294 294 294 293 293 293 293 293 292 291 289 288 287 288 288 288 288 288 288 289 289 290 290 289 289 289 288 287 287 288 288 289 290 290 290 290 289 288 287 287 286
249 249 250 250 249 247 247 248 251 254 256 257 257 257 258 259 261 262 264 266 267 269 270 271 272 272 273 274 275 277 277 278 281 284 286 288 292 295 296 296 296 295 294 294 295 295 294 294 293 293 293 292 292 290 289 288 287 287 287 288 288 288 288 289 289 289 289 289 288 288 287 287 287 288 288 288 289 289 289 289 289 288 287 287 286
247 249 249 249 248 247 248 249 250 252 254 255 256 256 257 259 261 263 266 269 270 271 272 272 272 273 273 274 275 276 278 279 280 282 284 287 292 295 295 295 295 294 294 294 295 295 294 294 293 292 292 291 291 289 289 288 287 287 287 287 287 288 288 288 288 288 288 287 287 286 286 287 287 287 287 288 288 288 288 288 289 289 289 288 288
244 248 249 249 248 248 248 248 249 251 253 255 256 256 258 259 261 263 267 270 271 272 272 273 274 275 275 276 277 278 279 280 281 283 284 288 292 294 294 295 295 294 294 295 295 295 294 293 293 292 291 291 289 289 288 287 287 286 286 286 286 286 286 286 286 286 286 285 285 285 285 286 286 286 287 288 288 287 288 289 290 290 290 291 291
243 245 248 250 250 250 249 247 248 249 251 253 255 257 258 259 260 262 266 269 271 272 272 274 275 277 278 279 280 280 280 281 282 283 286 289 292 293 294 295 295 295 295 295 295 294 293 293 292 291 290 289 288 287 287 286 285 285 285 285 285 285 285 284 284 284 284 284 284 285 286 286 286 286 287 288 288 288 289 290 291 291 291 291 292
246 246 246 248 251 252 251 250 249 249 249 251 254 257 258 259 260 261 263 266 269 270 271 272 274 275 277 277 278 279 279 280 281 283 286 289 291 292 293 294 294 294 295 295 295 294 293 291 290 290 289 288 287 286 286 285 285 284 284 284 284 284 284 284 284 283 283 283 284 285 286 286 286 287 287 288 288 288 288 289 289 289 290 290 290
249 249 248 248 249 251 252 253 252 252 251 251 253 256 258 259 260 260 261 264 267 269 270 271 273 275 276 276 276 277 277 278 279 281 284 286 288 290 291 293 293 294 294 294 294 293 291 290 289 288 288 287 287 287 287 286 286 285 285 285 285 286 286 285 285 285 284 284 284 284 285 284 285 286 286 286 286 286 286 287 287 287 287 288 289
251 253 253 251 250 250 250 251 252 253 253 253 253 256 259 260 261 262 262 263 265 267 268 270 271 274 276 277 278 278 278 278 279 280 282 283 285 288 290 291 292 292 293 292 292 290 289 288 288 287 287 286 287 287 288 288 288 287 287 287 287 287 286 285 286 286 285 284 284 285 284 284 284 284 284 284 284 284 284 286 286 287 287 288 289
251 253 254 254 254 253 253 252 252 253 253 253 253 254 257 260 263 265 266 267 267 267 268 269 270 272 274 276 277 278 279 279 280 281 282 283 285 286 288 290 290 291 291 290 289 288 287 286 286 286 285 285 286 286 286 287 287 287 287 287 287 287 286 286 287 287 286 287 287 287 287 286 286 285 284 283 283 282 283 283 285 286 287 287 287
253 254 255 255 256 257 257 257 256 255 255 254 254 254 255 257 260 263 266 268 269 269 269 269 270 271 273 274 276 277 278 279 279 280 281 282 284 285 287 288 289 289 289 288 286 285 284 284 285 285 285 286 286 286 286 286 285 285 285 285 285 284 284 285 285 285 286 287 287 288 288 288 287 287 287 286 285 284 284 284 283 284 285 285 285
255 256 257 258 257 257 259 260 260 259 258 257 256 256 256 257 258 259 262 265 268 270 270 271 272 272 273 274 276 277 278 279 280 280 281 282 283 285 286 287 287 287 286 285 284 283 283 284 285 285 286 286 287 287 287 287 287 287 287 286 286 285 284 284 284 284 284 284 284 284 285 285 286 286 287 287 288 288 287 287 286 285 285 284 284
255 257 258 259 260 260 259 260 261 261 261 260 260 260 260 260 261 261 262 264 266 269 271 272 274 274 275 276 277 278 279 280 281 282 283 283 284 285 285 286 285 285 284 284 284 284 285 285 285 286 286 286 287 287 287 288 288 288 288 287 287 287 287 286 286 285 284 283 283 283 283 284 284 285 285 286 286 287 287 287 287 287 286 286 285
257 258 259 260 261 262 262 262 262 261 261 261 261 261 262 263 264 264 265 266 267 269 271 273 274 276 277 278 278 279 279 280 281 282 282 283 283 284 284 284 284 284 284 285 285 285 285 286 286 286 286 286 286 286 286 286 286 286 286 286 286 286 287 287 287 287 286 286 286 286 285 285 284 284 284 284 284 284 284 284 284 284 284 285 285
258 259 260 261 262 263 263 263 263 263 263 263 263 263 264 265 265 266 267 269 270 271 271 272 274 275 276 277 278 278 278 279 279 280 280 281 281 281 282 282 283 283 284 284 285 285 286 286 286 286 286 286 285 285 285 285 285 285 285 285 285 286 287 287 287 287 288 288 288 287 287 286 285 284 284 283 282 282 281 281 281 281 281 282 282
257 258 260 261 262 262 263 263 264 265 265 266 266 267 268 268 268 268 269 270 271 272 273 273 274 275 276 277 277 278 279 279 280 280 280 281 281 282 282 282 283 283 283 284 284 284 284 284 284 284 283 283 283 283 283 283 283 283 284 284 285 285 286 286 286 286 287 287 287 286 286 285 284 283 282 281 280 280 279 279 278 278 278 279 279
257 258 259 260 261 262 263 263 264 264 265 266 267 267 269 270 270 270 270 271 272 272 273 274 275 275 276 277 277 278 279 279 280 280 280 280 280 280 281 281 282 282 282 282 282 282 281 281 280 280 280 280 280 280 281 281 281 282 282 283 283 284 284 284 284 285 285 285 284 284 283 283 282 281 280 279 279 278 277 277 276 276 277 277 277
258 259 259 260 261 262 263 264 264 265 265 265 266 267 268 269 270 270 270 271 272 272 273 274 274 275 276 276 277 277 278 279 279 279 279 279 279 279 279 279 280 280 280 280 280 280 280 280 280 279 279 279 279 280 280 280 280 281 281 281 282 282 282 282 282 282 282 281 281 281 281 281 280 280 279 279 278 277 276 276 276 276 276 276 276
257 258 258 259 260 261 262 263 264 264 265 265 265 266 267 268 268 269 270 270 271 271 272 272 273 273 274 275 276 276 277 277 278 278 278 279 279 279 279 279 279 279 279 279 279 279 279 279 279 279 278 278 278 278 279 279 279 279 279 280 280 279 279 279 279 279 279 279 279 279 279 280 280 279 279 278 278 277 277 277 277 277 276 275 275
258 258 258 259 260 261 262 263 264 264 265 265 266 266 267 268 268 269 269 270 270 271 271 272 272 272 273 273 274 275 275 276 276 276 277 277 277 278 278 278 278 278 278 279 279 279 278 278 278 278 278 278 278 278 279 279 279 280 280 280 280 279 279 279 279 279 279 279 279 279 279 279 279 278 278 278 278 279 279 280 279 278 276 275 274
259 259 260 260 261 262 263 264 265 266 266 267 267 268 268 269 269 270 270 270 271 271 272 272 272 273 273 273 274 274 274 274 275 275 276 276 276 277 277 278 278 279 279 280 280 280 281 281 281 281 281 281 281 281 281 281 281 281 281 281 280 280 280 280 279 279 279 279 279 278 278 277 277 277 278 278 279 280 281 281 280 278 277 275 274
262 262 263 264 264 265 266 267 267 268 268 268 269 270 270 270 270 270 271 271 271 271 272 272 272 273 273 274 274 275 275 275 275 276 276 277 277 277 278 278 279 279 280 281 281 282 282 282 283 283 283 283 283 283 283 283 282 282 282 281 281 280 280 279 279 279 279 278 277 277 276 276 276 277 277 278 279 280 281 280 279 278 277 276 275
265 266 266 266 267 267 267 268 268 268 269 269 269 270 271 271 271 271 271 271 271 272 272 272 272 273 273 273 274 274 274 274 275 275 275 276 277 277 278 278 279 279 280 280 281 281 282 282 283 283 283 283 283 283 282 282 281 280 280 279 279 278 278 277 277 276 276 276 276 276 277 277 277 277 278 278 280 281 281 280 279 278 277 275 274
266 266 267 268 268 269 269 269 269 270 270 270 270 271 271 272 272 272 272 271 271 272 272 272 273 273 273 273 273 274 274 274 275 275 275 276 276 277 277 278 279 279 280 281 281 281 281 281 281 281 281 281 281 280 280 279 278 277 276 276 275 275 274 274 273 273 272 273 274 275 276 277 276 277 278 280 281 282 282 282 280 277 276 275 276
266 266 267 268 269 269 269 269 270 270 270 270 271 271 271 271 272 272 272 272 272 272 272 272 273 273 273 273 274 274 274 275 275 276 276 277 277 278 278 279 279 280 280 280 281 281 281 281 280 280 280 280 279 279 278 277 276 275 274 273 273 272 272 271 271 270 270 271 273 274 274 275 275 277 279 281 282 283 282 281 278 276 276 277 279
265 266 266 266 267 267 267 268 268 269 269 269 270 270 270 271 271 271 272 272 272 272 272 272 272 272 273 273 274 274 274 275 275 275 276 276 277 278 278 279 279 280 280 280 281 281 281 281 281 280 280 280 279 278 277 276 274 273 272 272 271 271 270 270 269 269 269 270 271 271 272 273 275 277 279 280 281 281 280 277 276 276 278 280 281
263 264 264 265 265 266 266 267 267 268 268 268 269 269 269 270 270 270 271 271 272 272 272 272 272 272 272 272 273 273 274 275 275 276 276 276 277 277 278 278 279 280 280 280 281 281 281 281 281 281 280 279 278 277 275 274 273 272 271 271 270 269 269 268 268 268 268 268 268 269 270 272 275 277 279 280 280 279 276 274 274 276 279 280 281
264 264 265 266 266 267 267 268 268 268 269 269 269 269 270 270 270 271 271 271 271 272 272 273 273 273 272 272 273 273 274 274 275 276 276 276 277 277 278 279 279 280 281 281 282 282 282 282 281 280 279 278 277 276 274 273 272 271 270 269 268 268 267 267 267 267 267 267 267 268 269 272 275 277 278 279 279 278 276 274 275 277 279 280 281
267 268 268 269 269 269 270 270 270 270 271 271 271 271 272 272 272 272 272 273 273 273 274 274 274 275 275 275 275 275 275 275 276 276 277 277 278 278 279 280 281 281 282 283 283 282 282 281 279 278 277 277 276 275 274 273 272 270 269 268 267 266 265 265 266 266 266 267 268 269 271 273 275 276 278 278 278 278 276 275 277 279 280 280 281
269 270 270 270 271 271 271 271 272 272 273 273 273 274 274 274 274 274 274 275 275 276 276 276 276 277 277 277 277 277 277 278 278 278 278 279 279 280 281 281 282 282 283 283 283 282 281 279 278 277 277 276 275 274 273 272 271 270 269 267 266 265 265 265 266 267 267 268 270 271 273 274 276 277 278 279 278 277 276 276 278 279 279 278 278
269 269 270 270 271 271 271 272 272 272 273 273 273 274 274 274 275 275 276 276 277 277 277 277 277 278 278 279 279 279 280 280 280 280 281 281 281 282 282 282 283 283 283 283 281 280 279 278 278 277 276 275 274 273 272 271 270 269 268 267 267 267 266 266 266 268 269 270 271 273 274 275 276 277 277 277 277 277 276 276 277 277 277 276 275
268 269 269 269 270 270 271 271 271 272 272 272 273 273 274 274 275 275 276 276 277 277 277 278 278 278 279 279 280 281 281 281 282 282 282 282 282 282 283 283 284 284 283 282 280 279 278 278 277 276 275 274 273 272 271 270 269 269 269 269 269 269 268 268 268 269 270 271 271 272 272 273 273 274 274 275 275 275 273 274 275 275 275 275 273
267 268 268 269 269 270 271 271 272 272 273 273 273 274 274 275 275 276 276 277 277 277 278 278 279 279 280 280 281 281 282 282 282 282 283 283 283 283 283 284 284 284 283 282 281 280 280 279 277 276 274 273 272 271 270 270 270 269 269 270 271 271 270 270 269 268 267 267 268 269 269 270 270 271 272 272 272 271 271 271 272 272 272 272 271
268 268 269 270 270 271 272 272 273 273 273 274 274 274 274 275 275 276 276 276 277 277 278 278 279 280 280 281 281 282 282 282 282 283 283 283 283 283 284 284 284 284 283 282 281 281 281 280 279 277 275 274 273 272 271 270 270 270 271 271 271 270 268 267 265 264 264 265 266 267 268 269 270 270 270 270 269 269 269 269 269 269 268 268 267
268 269 269 270 270 271 271 272 272 272 272 273 273 273 273 274 275 275 276 276 277 277 278 279 280 280 281 282 282 282 283 283 283 283 283 283 283 284 285 285 284 283 283 282 282 282 281 280 279 278 276 274 273 272 272 271 271 271 270 269 267 265 264 264 264 264 264 265 265 266 267 267 268 268 268 267 267 267 268 267 266 265 264 263 262
266 267 267 268 268 269 269 270 270 270 271 271 272 273 273 274 275 275 276 277 278 279 279 280 281 281 282 282 283 283 283 283 283 284 284 284 284 285 285 285 284 283 282 282 282 281 281 279 278 277 276 274 272 271 270 270 269 268 266 265 263 262 262 263 264 264 263 263 262 263 263 264 265 266 266 265 265 265 265 264 263 262 260 259 258
264 265 266 266 267 268 268 269 270 270 271 272 272 273 274 275 276 277 278 279 279 280 281 281 282 282 282 282 283 283 283 283 283 283 284 284 285 286 286 285 284 283 282 282 281 281 280 278 277 275 273 272 271 269 267 266 265 263 262 261 261 261 261 262 263 263 263 262 261 261 261 261 262 262 262 262 262 262 261 261 260 258 257 255 255
264 265 266 267 268 269 270 270 271 272 272 273 274 274 275 276 277 278 279 280 280 281 281 281 281 282 282 282 282 283 283 283 283 284 284 285 286 286 286 285 284 283 282 281 281 280 279 277 276 274 272 271 270 268 267 265 263 262 261 261 261 262 262 263 264 263 263 262 261 260 259 259 259 259 259 259 258 258 257 256 256 255 253 252 252
264 265 267 268 269 270 270 271 272 272 273 274 274 275 276 277 278 279 279 280 280 281 281 281 281 281 281 281 282 282 283 283 283 284 285 285 286 286 285 284 283 282 281 281 281 280 278 277 275 273 271 270 269 268 267 265 264 264 264 264 264 264 264 265 264 263 262 260 259 258 258 257 256 256 256 255 255 254 254 253 252 251 251 251 252
264 266 267 268 269 270 271 272 272 273 273 274 275 276 277 278 278 279 279 280 280 281 281 281 281 281 281 281 282 282 283 283 283 284 284 285 286 286 285 284 284 283 283 282 282 281 279 277 275 273 272 270 269 267 266 266 265 264 264 264 264 264 264 263 263 262 261 260 258 257 256 255 255 254 253 253 252 252 252 251 250 250 251 251 252
264 266 267 269 270 271 272 272 273 274 274 275 276 277 278 278 279 279 280 280 281 281 281 281 281 281 281 281 282 282 283 283 283 284 285 285 286 286 286 286 285 285 285 284 283 282 280 278 276 274 272 271 269 268 267 266 266 265 264 263 262 262 261 261 261 261 261 260 259 258 257 255 255 254 254 253 252 252 251 250 250 250 251 251 252
264 266 267 269 270 271 272 273 273 274 275 276 277 278 279 280 280 281 281 281 281 281 281 281 281 281 281 282 282 283 283 284 284 285 286 286 286 286 286 286 286 285 284 283 282 282 280 278 276 274 272 271 269 268 267 266 265 265 265 264 263 262 260 260 260 261 261 260 259 258 258 257 256 255 255 254 253 252 251 250 250 250 250 251 252
Height
10587 10587 10587 10588 10588 10588 10589 10590 10591 10592 10593 10594 10596 10598 10599 10600 10600 10601 10602 10603 10605 10606 10608 10608 10609 10609 10610 10610 10610 10611 10612 10613 10613 10614 10615 10615 10615 10615 10615 10614 10613 10613 10612 10612 10613 10613 10612 10612 10611 10611 10611 10610 10609 10608 10608 10608 10608 10607 10606 10605 10604 10603 10602 10601 10600 10599 10598 10597 10595 10594 10594 10594 10593 10592 10591 10590 10590 10590 10589 10588 10586 10585 10583 10582 10581
10586 10586 10586 10586 10586 10586 10587 10587 10588 10589 10590 10591 10593 10595 10595 10595 10596 10597 10597 10599 10600 10602 10603 10604 10605 10605 10606 10606 10607 10607 10608 10608 10609 10609 10609 10610 10610 10610 10610 10609 10609 10608 10608 10608 10608 10608 10608 10607 10607 10606 10606 10605 10604 10603 10602 10602 10602 10602 10601 10600 10598 10597 10596 10595 10594 10593 10592 10591 10589 10588 10587 10586 10585 10584 10583 10583 10583 10583 10582 10581 10580 10578 10576 10575 10574
10585 10584 10583 10584 10584 10584 10584 10584 10585 10585 10585 10586 10589 10591 10591 10591 10592 10592 10593 10595 10596 10597 10598 10600 10600 10601 10601 10602 10603 10603 10603 10604 10604 10604 10604 10604 10605 10605 10605 10604 10604 10603 10603 10603 10603 10603 10603 10603 10602 10602 10601 10600 10599 10598 10597 10596 10595 10595 10595 10594 10592 10591 10590 10589 10588 10587 10586 10585 10583 10582 10580 10579 10578 10577 10576 10575 10575 10575 10575 10574 10574 10572 10570 10569 10568
10583 10581 10580 10581 10582 10581 10581 10581 10581 10580 10580 10581 10583 10585 10585 10585 10586 10588 10590 10591 10592 10592 10594 10595 10596 10596 10597 10598 10598 10598 10599 10599 10599 10599 10599 10599 10600 10600 10600 10599 10599 10598 10598 10597 10597 10597 10597 10597 10597 10597 10596 10594 10593 10592 10590 10589 10588 10587 10587 10586 10586 10584 10583 10582 10581 10580 10579 10578 10577 10576 10575 10573 10570 10569 10569 10568 10568 10568 10568 10567 10566 10565 10564 10563 10562
10578 10578 10577 10578 10579 10579 10579 10578 10577 10577 10576 10576 10578 10578 10578 10579 10581 10583 10585 10586 10587 10588 10589 10590 10591 10591 10592 10593 10593 10593 10593 10593 10594 10594 10594 10594 10594 10594 10594 10594 10594 10593 10593 10592 10592 10591 10591 10591 10591 10590 10589 10588 10587 10585 10584 10582 10580 10579 10578 10578 10577 10577 10576 10575 10574 10573 10572 10571 10570 10569 10568 10566 10564 10562 10561 10561 10561 10561 10561 10560 10559 10558 10557 10556 10555
10574 10573 10573 10574 10576 10576 10575 10574 10573 10573 10572 10572 10573 10573 10573 10575 10576 10578 10580 10581 10582 10583 10584 10585 10585 10586 10586 10587 10586 10586 10587 10587 10588 10588 10588 10588 10588 10589 10589 10589 10589 10589 10588 10587 10587 10586 10585 10584 10583 10583 10582 10581 10580 10578 10577 10575 10574 10572 10570 10569 10568 10568 10567 10566 10566 10565 10564 10563 10562 10562 10561 10559 10557 10555 10554 10553 10554 10554 10554 10554 10552 10551 10549 10548 10547
10571 10569 10568 10570 10572 10570 10569 10569 10569 10568 10569 10569 10570 10570 10570 10571 10572 10573 10574 10575 10576 10577 10578 10578 10579 10580 10581 10581 10580 10580 10580 10581 10581 10582 10582 10582 10582 10582 10582 10583 10583 10583 10582 10582 10581 10580 10579 10578 10577 10575 10574 10573 10572 10571 10569 10568 10566 10565 10563 10562 10561 10560 10559 10558 10557 10556 10556 10555 10554 10553 10553 10551 10550 10548 10547 10545 10545 10546 10546 10546 10545 10544 10542 10541 10540
10566 10566 10566 10567 10568 10566 10564 10564 10563 10564 10565 10566 10565 10565 10566 10566 10567 10568 10569 10569 10570 10570 10571 10572 10572 10573 10573 10574 10574 10574 10574 10575 10575 10576 10576 10576 10576 10576 10576 10576 10576 10576 10576 10575 10575 10574 10573 10571 10570 10569 10567 10566 10565 10563 10561 10560 10559 10557 10556 10554 10553 10552 10551 10550 10549 10548 10547 10545 10544 10543 10542 10542 10542 10541 10540 10538 10537 10537 10537 10537 10537 10536 10535 10534 10533
10562 10563 10563 10564 10564 10562 10560 10559 10558 10559 10561 10561 10560 10560 10561 10562 10562 10563 10563 10564 10564 10564 10564 10565 10565 10566 10566 10567 10567 10567 10567 10568 10568 10569 10569 10569 10569 10569 10569 10569 10569 10569 10568 10568 10567 10567 10566 10564 10563 10562 10560 10559 10557 10556 10553 10551 10550 10549 10547 10546 10545 10543 10542 10541 10540 10539 10538 10536 10535 10533 10532 10531 10531 10531 10531 10529 10529 10528 10528 10528 10528 10527 10527 10526 10525
10560 10561 10560 10560 10560 10558 10556 10555 10555 10555 10556 10556 10556 10556 10556 10557 10557 10557 10557 10557 10557 10557 10558 10559 10559 10559 10560 10560 10560 10561 10561 10561 10561 10562 10562 10562 10562 10563 10563 10562 10562 10561 10560 10560 10559 10558 10557 10556 10555 10553 10552 10551 10549 10547 10545 10543 10541 10540 10539 10538 10537 10536 10535 10534 10533 10532 10530 10529 10528 10526 10524 10523 10523 10522 10521 10521 10520 10520 10519 10519 10519 10518 10518 10517 10517
10557 10557 10556 10555 10554 10553 10552 10552 10551 10551 10551 10552 10551 10551 10551 10551 10550 10550 10550 10550 10551 10551 10552 10553 10553 10554 10554 10554 10554 10554 10554 10555 10555 10556 10556 10556 10556 10556 10556 10555 10555 10554 10553 10552 10551 10550 10549 10548 10546 10544 10543 10542 10540 10539 10537 10535 10534 10533 10532 10531 10530 10529 10528 10527 10526 10525 10523 10522 10521 10519 10518 10516 10515 10515 10514 10513 10512 10511 10511 10511 10510 10510 10510 10509 10509
10552 10551 10550 10550 10549 10549 10548 10548 10548 10547 10546 10546 10546 10546 10545 10545 10544 10544 10543 10544 10545 10545 10546 10546 10547 10547 10547 10547 10547 10546 10547 10548 10549 10549 10549 10549 10549 10549 10548 10548 10547 10546 10545 10544 10543 10542 10541 10539 10538 10536 10534 10533 10532 10531 10530 10528 10527 10526 10525 10524 10522 10521 10520 10520 10518 10517 10515 10514 10513 10511 10509 10508 10507 10507 10506 10505 10504 10503 10502 10502 10501 10501 10501 10500 10500
10544 10543 10543 10543 10544 10544 10545 10545 10544 10541 10541 10542 10541 10541 10540 10539 10538 10538 10538 10538 10538 10539 10539 10540 10540 10540 10540 10540 10541 10540 10540 10541 10542 10543 10542 10542 10541 10540 10540 10539 10539 10538 10537 10535 10534 10533 10532 10531 10529 10528 10527 10526 10524 10523 10522 10521 10520 10519 10518 10516 10515 10513 10513 10512 10510 10508 10507 10506 10504 10502 10501 10500 10499 10498 10497 10497 10497 10495 10493 10493 10492 10492 10491 10490 10490
10537 10536 10536 10536 10538 10539 10540 10541 10538 10536 10536 10537 10536 10535 10534 10533 10532 10532 10532 10532 10532 10532 10532 10532 10533 10533 10533 10533 10534 10534 10534 10533 10534 10534 10534 10534 10533 10532 10532 10531 10530 10529 10528 10527 10525 10524 10523 10522 10521 10519 10518 10518 10517 10515 10514 10513 10512 10512 10511 10509 10508 10506 10506 10505 10503 10501 10499 10498 10497 10495 10494 10493 10493 10491 10489 10489 10489 10487 10484 10484 10484 10483 10482 10481 10480
10531 10530 10530 10530 10531 10533 10534 10534 10533 10531 10531 10532 10531 10529 10527 10526 10526 10527 10527 10526 10526 10526 10526 10526 10526 10526 10525 10525 10525 10526 10527 10526 10525 10525 10525 10525 10524 10524 10523 10523 10522 10520 10519 10517 10516 10515 10514 10513 10512 10510 10509 10509 10508 10507 10506 10505 10505 10504 10503 10501 10500 10499 10498 10497 10496 10495 10493 10492 10490 10488 10487 10487 10486 10485 10483 10481 10480 10478 10476 10475 10474 10474 10473 10472 10471
10523 10522 10523 10525 10525 10526 10526 10527 10527 10525 10525 10527 10526 10523 10521 10521 10521 10521 10521 10521 10520 10520 10519 10519 10519 10519 10518 10518 10517 10517 10518 10517 10517 10516 10516 10515 10515 10514 10514 10513 10512 10511 10509 10508 10507 10506 10505 10504 10502 10501 10499 10498 10498 10497 10497 10496 10496 10495 10494 10493 10492 10491 10491 10490 10489 10488 10487 10486 10485 10483 10481 10479 10478 10478 10477 10475 10473 10470 10467 10467 10466 10466 10465 10465 10464
10514 10513 10515 10518 10519 10519 10519 10521 10520 10518 10519 10520 10520 10517 10515 10514 10515 10515 10514 10513 10513 10513 10512 10512 10511 10511 10511 10511 10510 10510 10510 10510 10509 10509 10508 10507 10506 10505 10505 10504 10503 10502 10500 10498 10497 10496 10495 10494 10492 10491 10489 10487 10486 10486 10486 10486 10486 10486 10485 10484 10483 10483 10481 10479 10479 10478 10477 10477 10477 10476 10474 10472 10470 10469 10469 10468 10467 10463 10459 10458 10458 10458 10457 10456 10456
10507 10505 10505 10509 10511 10511 10513 10514 10513 10512 10512 10513 10513 10511 10507 10507 10509 10508 10506 10505 10505 10504 10503 10503 10503 10503 10502 10502 10502 10502 10503 10502 10502 10501 10500 10499 10498 10497 10496 10495 10494 10493 10492 10490 10489 10487 10485 10484 10482 10481 10479 10477 10476 10476 10475 10475 10475 10475 10474 10474 10473 10473 10470 10468 10468 10467 10466 10466 10466 10466 10465 10464 10462 10461 10460 10460 10458 10456 10452 10450 10448 10447 10448 10448 10447
10500 10497 10497 10499 10502 10503 10505 10507 10507 10506 10506 10506 10507 10505 10502 10501 10502 10500 10497 10496 10496 10496 10495 10495 10495 10494 10493 10492 10491 10491 10492 10492 10492 10491 10490 10489 10488 10488 10487 10486 10485 10485 10484 10482 10480 10478 10476 10475 10473 10472 10471 10469 10468 10467 10467 10466 10465 10464 10464 10464 10463 10462 10460 10458 10458 10457 10455 10455 10455 10455 10455 10453 10452 10452 10451 10450 10449 10447 10446 10444 10440 10438 10439 10439 10438
10492 10490 10490 10492 10494 10495 10496 10498 10499 10499 10498 10498 10498 10498 10496 10495 10496 10494 10491 10488 10486 10486 10486 10486 10487 10486 10485 10483 10481 10480 10479 10480 10481 10481 10480 10480 10479 10478 10477 10477 10477 10476 10475 10473 10472 10470 10467 10465 10464 10462 10461 10461 10460 10459 10458 10458 10457 10457 10456 10456 10455 10454 10452 10450 10450 10448 10446 10446 10445 10445 10445 10443 10441 10440 10439 10439 10438 10437 10438 10437 10435 10433 10431 10430 10429
10485 10483 10483 10484 10486 10487 10488 10488 10489 10489 10489 10489 10489 10489 10489 10488 10488 10488 10486 10483 10479 10476 10475 10476 10477 10477 10476 10475 10473 10471 10469 10468 10468 10468 10469 10468 10468 10467 10467 10467 10467 10466 10465 10464 10462 10461 10459 10456 10454 10452 10451 10451 10450 10449 10448 10447 10446 10447 10447 10446 10444 10444 10443 10443 10442 10441 10439 10438 10437 10436 10436 10435 10433 10431 10429 10428 10427 10426 10426 10426 10425 10424 10422 10420 10419
10479 10477 10476 10476 10476 10478 10478 10478 10479 10478 10479 10479 10480 10480 10480 10479 10478 10478 10478 10477 10473 10469 10467 10466 10465 10465 10465 10465 10463 10462 10460 10458 10456 10456 10455 10455 10456 10455 10455 10454 10454 10454 10454 10453 10451 10450 10449 10447 10445 10442 10440 10440 10440 10439 10437 10436 10435 10436 10435 10433 10431 10430 10430 10430 10430 10430 10429 10428 10427 10427 10427 10425 10424 10422 10420 10419 10418 10416 10415 10414 10413 10412 10411 10410 10409
10470 10469 10469 10468 10468 10468 10468 10469 10469 10469 10469 10469 10470 10471 10470 10469 10469 10468 10467 10466 10464 10462 10460 10458 10456 10455 10454 10453 10453 10452 10451 10449 10447 10445 10444 10444 10443 10444 10444 10443 10442 10442 10443 10442 10440 10439 10438 10437 10435 10432 10430 10429 10428 10428 10427 10426 10425 10425 10424 10423 10421 10420 10419 10418 10417 10416 10415 10415 10415 10415 10414 10413 10412 10411 10409 10408 10408 10407 10406 10405 10403 10402 10401 10399 10398
10461 10460 10459 10459 10459 10459 10459 10459 10459 10459 10459 10460 10460 10461 10461 10460 10459 10458 10457 10455 10453 10452 10451 10449 10448 10446 10445 10443 10442 10441 10440 10440 10438 10436 10435 10434 10432 10431 10431 10431 10430 10430 10431 10430 10429 10429 10428 10427 10425 10422 10419 10417 10416 10415 10414 10414 10414 10413 10412 10410 10410 10410 10410 10407 10404 10403 10402 10402 10401 10401 10400 10400 10399 10398 10397 10397 10396 10396 10396 10395 10393 10392 10391 10389 10388
10452 10451 10450 10449 10449 10449 10450 10450 10450 10450 10450 10450 10450 10450 10449 10449 10449 10448 10447 10446 10444 10442 10441 10439 10438 10437 10435 10434 10432 10430 10429 10428 10426 10425 10424 10423 10421 10419 10417 10417 10416 10417 10418 10419 10419 10419 10419 10417 10415 10413 10410 10407 10405 10403 10403 10402 10401 10401 10400 10399 10399 10400 10399 10396 10393 10393 10392 10390 10389 10388 10387 10387 10386 10386 10385 10385 10385 10385 10385 10383 10382 10381 10380 10379 10378
10442 10441 10441 10440 10440 10440 10440 10441 10441 10441 10441 10441 10440 10440 10439 10438 10438 10437 10436 10436 10434 10433 10431 10429 10428 10427 10425 10424 10423 10420 10418 10417 10415 10413 10411 10410 10409 10408 10407 10405 10404 10405 10406 10407 10407 10408 10408 10407 10406 10403 10400 10397 10394 10392 10392 10391 10390 10389 10389 10388 10388 10389 10388 10385 10383 10382 10380 10379 10378 10375 10374 10373 10373 10372 10373 10372 10372 10373 10372 10371 10370 10370 10369 10369 10367
10432 10431 10431 10430 10430 10430 10430 10430 10431 10431 10431 10431 10430 10430 10429 10429 10428 10427 10426 10425 10424 10423 10421 10420 10418 10417 10415 10414 10412 10410 10408 10406 10403 10400 10397 10396 10396 10395 10395 10395 10393 10393 10393 10393 10393 10394 10394 10393 10391 10390 10388 10386 10383 10381 10379 10379 10378 10378 10377 10376 10377 10377 10376 10374 10372 10370 10368 10367 10365 10362 10360 10360 10359 10358 10358 10358 10359 10359 10360 10359 10360 10360 10359 10358 10357
10421 10421 10421 10420 10420 10420 10420 10420 10420 10420 10420 10419 10419 10419 10419 10418 10417 10416 10415 10415 10414 10412 10411 10409 10407 10406 10405 10403 10401 10399 10397 10394 10391 10388 10384 10382 10382 10381 10381 10380 10379 10378 10378 10378 10379 10380 10379 10378 10377 10375 10373 10372 10371 10370 10368 10366 10365 10365 10364 10364 10364 10364 10363 10361 10360 10357 10355 10352 10350 10349 10348 10347 10345 10344 10344 10344 10344 10345 10346 10348 10349 10349 10348 10347 10344
10411 10411 10410 10410 10410 10410 10409 10409 10409 10409 10408 10408 10407 10407 10406 10406 10406 10404 10404 10403 10402 10400 10399 10397 10395 10394 10393 10391 10389 10388 10385 10381 10378 10375 10372 10370 10368 10368 10366 10364 10363 10362 10361 10361 10363 10365 10363 10362 10361 10359 10357 10357 10357 10357 10355 10353 10352 10351 10350 10349 10349 10348 10347 10347 10346 10343 10340 10337 10336 10335 10335 10334 10331 10330 10330 10330 10330 10331 10334 10336 10338 10337 10336 10334 10332
10399 10399 10399 10399 10398 10398 10398 10398 10397 10397 10396 10395 10395 10394 10393 10393 10393 10392 10390 10390 10389 10388 10386 10384 10381 10379 10378 10377 10375 10374 10373 10369 10365 10361 10359 10356 10354 10353 10351 10349 10347 10346 10344 10343 10345 10345 10344 10343 10342 10341 10339 10339 10339 10340 10339 10338 10337 10335 10333 10332 10332 10333 10332 10332 10331 10329 10326 10324 10322 10321 10321 10320 10319 10318 10318 10317 10317 10319 10322 10324 10324 10324 10323 10321 10320
10387 10387 10387 10386 10386 10386 10386 10385 10385 10384 10384 10383 10382 10381 10380 10379 10380 10379 10378 10377 10375 10374 10372 10371 10369 10366 10364 10362 10360 10358 10357 10355 10352 10348 10344 10342 10339 10337 10336 10334 10332 10331 10329 10328 10327 10327 10326 10325 10324 10322 10321 10321 10322 10323 10323 10322 10321 10320 10318 10316 10316 10317 10318 10318 10317 10316 10313 10309 10307 10307 10307 10307 10307 10307 10306 10306 10307 10309 10311 10312 10312 10311 10311 10310 10309
10374 10374 10374 10374 10374 10374 10373 10373 10372 10372 10371 10371 10371 10369 10367 10365 10364 10365 10365 10364 10362 10359 10358 10356 10355 10353 10351 10349 10346 10343 10341 10339 10337 10335 10332 10329 10326 10323 10321 10319 10317 10316 10315 10314 10313 10312 10311 10311 10310 10307 10305 10306 10307 10308 10308 10307 10307 10306 10304 10302 10302 10303 10304 10304 10304 10303 10300 10295 10292 10293 10295 10295 10294 10294 10293 10294 10297 10299 10301 10301 10301 10300 10300 10299 10298
10362 10361 10361 10361 10361 10361 10361 10360 10359 10359 10359 10358 10358 10356 10355 10352 10349 10348 10348 10348 10348 10346 10344 10342 10340 10338 10335 10333 10331 10329 10327 10324 10322 10320 10318 10316 10313 10310 10308 10305 10304 10303 10301 10299 10299 10298 10297 10298 10297 10294 10292 10292 10293 10295 10295 10294 10293 10292 10290 10289 10289 10289 10290 10291 10290 10290 10287 10283 10281 10283 10284 10282 10281 10281 10282 10284 10287 10289 10291 10292 10290 10289 10288 10288 10288
10349 10349 10348 10349 10349 10349 10348 10348 10347 10346 10345 10345 10344 10343 10342 10340 10337 10333 10331 10330 10331 10331 10330 10329 10326 10323 10320 10317 10315 10314 10312 10310 10308 10306 10303 10301 10297 10295 10292 10291 10290 10289 10287 10286 10284 10283 10283 10283 10283 10282 10280 10279 10280 10282 10281 10280 10279 10278 10277 10276 10276 10276 10277 10277 10277 10276 10275 10273 10272 10273 10272 10269 10268 10270 10272 10275 10278 10280 10282 10282 10279 10278 10278 10278 10279
10337 10336 10336 10336 10336 10336 10335 10334 10333 10333 10332 10331 10330 10329 10328 10326 10324 10321 10318 10315 10313 10312 10313 10313 10313 10311 10307 10303 10300 10299 10297 10295 10294 10292 10290 10287 10284 10280 10278 10276 10275 10274 10274 10273 10271 10270 10269 10269 10269 10268 10268 10266 10266 10268 10268 10266 10265 10264 10264 10263 10263 10263 10263 10264 10264 10264 10265 10265 10263 10262 10260 10258 10258 10261 10264 10266 10269 10272 10273 10272 10269 10268 10269 10270 10271
10324 10323 10324 10323 10323 10322 10321 10320 10319 10319 10318 10317 10316 10315 10313 10311 10310 10308 10306 10302 10299 10296 10295 10295 10296 10296 10294 10291 10288 10285 10283 10281 10279 10278 10276 10274 10271 10268 10265 10263 10262 10261 10260 10259 10259 10257 10256 10255 10255 10255 10254 10253 10253 10254 10254 10253 10252 10251 10251 10251 10251 10251 10252 10252 10252 10252 10253 10254 10253 10252 10250 10249 10250 10253 10255 10258 10261 10264 10265 10263 10261 10261 10262 10263 10263
10309 10309 10309 10309 10308 10307 10306 10305 10304 10304 10303 10302 10301 10300 10299 10297 10295 10293 10291 10289 10286 10283 10281 10279 10278 10278 10278 10277 10275 10273 10271 10269 10266 10264 10262 10260 10257 10255 10253 10251 10249 10248 10247 10246 10246 10245 10243 10243 10242 10241 10240 10239 10239 10240 10241 10240 10240 10239 10239 10239 10240 10240 10240 10240 10240 10241 10242 10242 10243 10242 10241 10242 10244 10246 10247 10249 10251 10254 10255 10253 10253 10253 10254 10255 10255
10294 10295 10294 10294 10293 10292 10291 10290 10290 10289 10288 10287 10286 10285 10284 10282 10280 10278 10276 10274 10272 10270 10269 10266 10264 10262 10261 10260 10260 10259 10258 10256 10254 10252 10249 10247 10244 10242 10241 10239 10237 10235 10234 10233 10233 10231 10230 10230 10229 10229 10228 10227 10227 10227 10228 10228 10228 10227 10227 10228 10229 10229 10230 10229 10229 10230 10232 10232 10232 10233 10234 10235 10237 10239 10239 10240 10242 10245 10245 10244 10244 10245 10246 10247 10247
10281 10281 10280 10279 10279 10278 10277 10276 10276 10275 10274 10273 10272 10271 10269 10268 10266 10264 10263 10261 10260 10258 10256 10254 10252 10250 10247 10246 10245 10244 10244 10243 10241 10239 10237 10234 10232 10230 10229 10227 10225 10224 10222 10221 10220 10218 10218 10218 10218 10218 10217 10217 10216 10215 10215 10216 10217 10216 10216 10217 10218 10219 10220 10220 10220 10221 10222 10223 10224 10225 10226 10228 10230 10231 10231 10232 10233 10235 10236 10236 10236 10237 10238 10239 10240
10267 10267 10267 10266 10265 10264 10263 10263 10263 10262 10262 10261 10260 10258 10257 10255 10253 10252 10251 10250 10248 10247 10244 10243 10241 10239 10237 10235 10233 10232 10231 10230 10228 10227 10225 10223 10221 10219 10217 10215 10214 10212 10211 10210 10208 10207 10207 10208 10208 10207 10207 10206 10206 10205 10205 10205 10206 10205 10205 10207 10208 10210 10212 10213 10213 10212 10213 10215 10216 10217 10218 10219 10221 10222 10222 10223 10224 10226 10227 10227 10227 10229 10230 10231 10232
10255 10254 10254 10253 10253 10252 10251 10251 10251 10250 10250 10249 10248 10247 10245 10243 10242 10241 10241 10239 10237 10235 10233 10232 10230 10228 10227 10225 10223 10221 10220 10218 10217 10215 10213 10212 10210 10208 10206 10205 10203 10202 10201 10199 10197 10197 10198 10198 10198 10197 10197 10196 10196 10195 10194 10195 10195 10196 10196 10198 10200 10201 10203 10205 10206 10206 10206 10207 10207 10208 10209 10211 10212 10213 10214 10215 10216 10217 10218 10219 10220 10222 10223 10224 10224
10243 10243 10242 10241 10241 10240 10240 10239 10239 10239 10238 10237 10236 10235 10233 10232 10231 10231 10230 10228 10227 10225 10223 10222 10220 10219 10217 10215 10214 10212 10210 10208 10207 10205 10203 10202 10200 10199 10197 10195 10194 10192 10191 10189 10187 10187 10188 10188 10188 10188 10187 10186 10186 10185 10185 10185 10186 10187 10189 10190 10192 10194 10195 10196 10198 10198 10198 10198 10198 10199 10201 10202 10203 10205 10206 10208 10209 10209 10210 10212 10213 10215 10216 10217 10217
10231 10231 10231 10230 10230 10230 10229 10229 10228 10228 10227 10226 10225 10224 10223 10222 10221 10221 10220 10218 10217 10215 10214 10212 10211 10209 10208 10206 10204 10203 10201 10199 10197 10195 10194 10192 10191 10190 10189 10187 10186 10184 10182 10180 10179 10179 10179 10178 10178 10178 10178 10178 10177 10176 10177 10177 10178 10179 10181 10183 10185 10186 10186 10187 10187 10188 10189 10190 10191 10192 10193 10195 10195 10197 10199 10201 10201 10201 10203 10205 10207 10208 10209 10209 10209
10221 10221 10221 10221 10220 10220 10219 10219 10219 10218 10218 10217 10215 10214 10213 10213 10212 10211 10210 10209 10207 10206 10205 10204 10202 10201 10199 10197 10195 10194 10192 10190 10188 10187 10185 10184 10183 10182 10181 10180 10178 10176 10173 10172 10171 10171 10171 10170 10170 10169 10169 10169 10169 10168 10168 10169 10171 10172 10174 10175 10176 10176 10176 10177 10178 10180 10181 10183 10185 10186 10187 10187 10188 10190 10192 10193 10194 10194 10196 10198 10199 10201 10202 10202 10203
10212 10212 10212 10212 10212 10211 10211 10210 10210 10210 10209 10208 10207 10205 10204 10204 10203 10202 10201 10200 10198 10197 10196 10195 10194 10192 10190 10189 10187 10185 10184 10182 10180 10179 10177 10176 10175 10175 10174 10172 10171 10168 10166 10164 10164 10164 10163 10162 10162 10162 10161 10161 10161 10161 10161 10162 10163 10164 10164 10165 10166 10167 10168 10169 10170 10172 10174 10176 10178 10179 10180 10181 10182 10183 10185 10186 10187 10188 10190 10191 10192 10194 10195 10196 10196
10204 10204 10203 10203 10203 10203 10203 10202 10202 10201 10200 10200 10198 10197 10196 10195 10194 10193 10192 10191 10190 10189 10188 10187 10185 10184 10182 10181 10179 10178 10176 10175 10173 10172 10170 10169 10168 10168 10166 10165 10163 10161 10159 10157 10157 10157 10156 10155 10155 10155 10154 10154 10154 10154 10154 10155 10155 10155 10156 10156 10158 10159 10160 10162 10163 10165 10167 10169 10171 10172 10173 10175 10176 10177 10178 10180 10181 10182 10183 10184 10185 10187 10188 10189 10189
10195 10195 10195 10195 10195 10195 10194 10194 10193 10193 10192 10191 10190 10189 10188 10187 10186 10185 10184 10183 10182 10181 10180 10179 10178 10176 10174 10173 10172 10171 10169 10168 10167 10165 10164 10162 10162 10161 10160 10158 10156 10155 10152 10151 10150 10150 10149 10148 10148 10148 10148 10148 10147 10147 10148 10148 10148 10148 10149 10150 10151 10152 10154 10155 10157 10159 10160 10162 10164 10165 10167 10168 10169 10171 10173 10174 10174 10175 10176 10178 10179 10180 10181 10182 10183
10187 10187 10187 10187 10187 10186 10186 10186 10185 10185 10184 10183 10182 10181 10180 10179 10178 10177 10176 10175 10174 10173 10173 10171 10170 10169 10167 10166 10165 10164 10163 10161 10160 10159 10158 10156 10155 10154 10153 10151 10150 10149 10147 10145 10144 10143 10143 10142 10142 10142 10142 10142 10142 10142 10142 10142 10142 10142 10143 10144 10145 10147 10148 10150 10151 10152 10154 10155 10157 10158 10160 10161 10163 10164 10166 10167 10168 10168 10170 10171 10172 10173 10174 10175 10176
10179 10180 10180 10180 10179 10179 10178 10178 10178 10178 10177 10176 10175 10174 10173 10172 10171 10170 10169 10168 10167 10166 10165 10164 10163 10162 10160 10159 10158 10157 10156 10154 10153 10153 10152 10150 10149 10148 10146 10145 10144 10143 10141 10139 10137 10137 10137 10136 10136 10136 10136 10136 10136 10136 10136 10136 10136 10136 10137 10138 10139 10141 10143 10144 10144 10145 10147 10149 10150 10151 10153 10154 10156 10157 10159 10160 10161 10162 10163 10164 10165 10166 10168 10169 10170
10172 10173 10173 10172 10172 10171 10171 10171 10171 10170 10170 10169 10168 10167 10166 10165 10164 10163 10162 10161 10160 10159 10158 10157 10156 10155 10154 10152 10151 10150 10149 10148 10147 10146 10145 10144 10143 10142 10140 10139 10137 10137 10135 10134 10132 10131 10130 10131 10131 10130 10130 10131 10131 10130 10130 10130 10130 10131 10131 10132 10134 10136 10137 10138 10138 10139 10141 10142 10144 10145 10146 10148 10149 10151 10152 10154 10155 10156 10157 10159 10160 10161 10162 10163 10164
10165 10166 10165 10165 10165 10164 10164 10164 10164 10163 10163 10162 10161 10160 10159 10158 10157 10156 10155 10154 10153 10152 10151 10151 10150 10149 10148 10146 10145 10143 10142 10141 10140 10139 10139 10138 10137 10136 10135 10133 10132 10131 10130 10129 10128 10126 10125 10125 10125 10125 10125 10125 10125 10125 10125 10125 10125 10125 10126 10127 10128 10130 10131 10132 10133 10134 10135 10136 10137 10139 10140 10142 10143 10145 10146 10147 10149 10150 10151 10153 10154 10155 10156 10157 10158